| time (UTC) | temp C | wind direction | speed KPH | gust KPH | rain 1hr cm | rain 24hr cm | rain mn cm | humidity % | barometer mb |
| 20260507174609 | 17 | 65 | 0.0 | 9.7 | 0.00 | 0.05 | 0.03 | 64 | 1012.1 |
| 20260507173108 | 17 | 44 | 1.6 | 11.3 | 0.00 | 0.05 | 0.03 | 62 | 1012.0 |
| 20260507171606 | 17 | 56 | 3.2 | 8.0 | 0.00 | 0.05 | 0.03 | 62 | 1012.1 |
| 20260507170100 | 16 | 55 | 1.6 | 8.0 | 0.00 | 0.05 | 0.03 | 66 | 1012.0 |
| 20260507164604 | 16 | 54 | 0.0 | 6.4 | 0.00 | 0.05 | 0.03 | 64 | 1012.2 |
| 20260507163105 | 16 | 40 | 3.2 | 9.7 | 0.00 | 0.05 | 0.03 | 64 | 1012.2 |
| 20260507161546 | 17 | 13 | 1.6 | 11.3 | 0.00 | 0.05 | 0.03 | 63 | 1012.3 |
| 20260507160052 | 17 | 335 | 0.0 | 6.4 | 0.00 | 0.05 | 0.03 | 64 | 1012.2 |
| 20260507154552 | 17 | 23 | 3.2 | 9.7 | 0.00 | 0.23 | 0.03 | 64 | 1012.3 |
| 20260507153100 | 17 | 359 | 4.8 | 11.3 | 0.00 | 0.23 | 0.03 | 65 | 1012.3 |
| 20260507151551 | 17 | 62 | 1.6 | 9.7 | 0.00 | 0.23 | 0.03 | 66 | 1012.5 |
| 20260507150104 | 16 | 59 | 1.6 | 6.4 | 0.00 | 0.23 | 0.03 | 66 | 1012.7 |
| 20260507144606 | 16 | 44 | 0.0 | 8.0 | 0.00 | 0.41 | 0.03 | 67 | 1012.9 |
| 20260507143107 | 16 | 44 | 3.2 | 9.7 | 0.00 | 0.41 | 0.03 | 65 | 1013.0 |
| 20260507141632 | 17 | 44 | 0.0 | 6.4 | 0.00 | 0.41 | 0.03 | 67 | 1013.0 |
| 20260507140046 | 17 | 26 | 1.6 | 8.0 | 0.00 | 0.41 | 0.03 | 66 | 1013.1 |
| 20260507134559 | 17 | 44 | 3.2 | 9.7 | 0.00 | 0.51 | 0.03 | 65 | 1013.2 |
| 20260507133053 | 16 | 32 | 1.6 | 8.0 | 0.00 | 0.51 | 0.03 | 65 | 1013.3 |
| 20260507131636 | 17 | 49 | 1.6 | 8.0 | 0.00 | 0.51 | 0.03 | 68 | 1013.3 |
| 20260507130104 | 16 | 65 | 1.6 | 9.7 | 0.00 | 0.51 | 0.03 | 67 | 1013.3 |
| 20260507124608 | 16 | 30 | 1.6 | 11.3 | 0.00 | 0.51 | 0.03 | 65 | 1013.3 |
| 20260507123106 | 17 | 72 | 3.2 | 11.3 | 0.00 | 0.51 | 0.03 | 68 | 1013.4 |
| 20260507121609 | 16 | 44 | 3.2 | 6.4 | 0.00 | 0.51 | 0.03 | 67 | 1013.6 |
| 20260507114600 | 16 | 137 | 0.0 | 6.4 | 0.00 | 0.51 | 0.03 | 67 | 1013.7 |
| 20260507113104 | 16 | 27 | 1.6 | 11.3 | 0.00 | 0.51 | 0.03 | 66 | 1013.7 |
| 20260507111559 | 15 | 83 | 1.6 | 4.8 | 0.00 | 0.51 | 0.03 | 70 | 1013.7 |
| 20260507110108 | 15 | 50 | 1.6 | 6.4 | 0.00 | 0.51 | 0.03 | 71 | 1013.7 |
| 20260507104602 | 15 | 311 | 0.0 | 4.8 | 0.00 | 0.51 | 0.03 | 73 | 1014.0 |
| 20260507103102 | 15 | 75 | 1.6 | 11.3 | 0.00 | 0.51 | 0.03 | 74 | 1014.0 |
| 20260507101550 | 15 | 339 | 0.0 | 4.8 | 0.00 | 0.51 | 0.03 | 74 | 1014.1 |
| 20260507100048 | 15 | 45 | 1.6 | 8.0 | 0.00 | 0.51 | 0.03 | 71 | 1014.0 |
| 20260507094608 | 15 | 70 | 3.2 | 9.7 | 0.00 | 0.51 | 0.03 | 72 | 1014.1 |
| 20260507093014 | 15 | 53 | 1.6 | 6.4 | 0.00 | 0.51 | 0.03 | 76 | 1014.2 |
| 20260507091640 | 14 | 73 | 0.0 | 8.0 | 0.00 | 0.51 | 0.03 | 79 | 1014.2 |
| 20260507090106 | 14 | 319 | 0.0 | 4.8 | 0.00 | 0.51 | 0.03 | 83 | 1014.1 |
| 20260507084553 | 13 | 34 | 0.0 | 4.8 | 0.00 | 0.51 | 0.03 | 86 | 1014.0 |
| 20260507083143 | 13 | 38 | 0.0 | 3.2 | 0.00 | 0.51 | 0.03 | 89 | 1014.0 |
| 20260507081609 | 12 | 318 | 0.0 | 3.2 | 0.00 | 0.51 | 0.03 | 92 | 1014.0 |
| 20260507080053 | 12 | 276 | 0.0 | 4.8 | 0.00 | 0.51 | 0.03 | 90 | 1014.1 |
| 20260507074551 | 12 | 352 | 0.0 | 1.6 | 0.00 | 0.51 | 0.03 | 93 | 1014.0 |
| 20260507073106 | 12 | 149 | 0.0 | 4.8 | 0.00 | 0.51 | 0.03 | 96 | 1014.0 |
| 20260507071604 | 11 | 5 | 0.0 | 1.6 | 0.00 | 0.51 | 0.03 | 97 | 1014.1 |
| 20260507070101 | 10 | 349 | 0.0 | 1.6 | 0.00 | 0.51 | 0.03 | 97 | 1014.0 |
| 20260507064605 | 10 | 295 | 0.0 | 1.6 | 0.00 | 0.51 | 0.03 | 98 | 1013.9 |
| 20260507063104 | 10 | 34 | 0.0 | 1.6 | 0.00 | 0.51 | 0.03 | 99 | 1013.9 |
| 20260507061524 | 10 | 41 | 0.0 | 1.6 | 0.00 | 0.51 | 0.03 | 98 | 1013.7 |
| 20260507060106 | 9 | 4 | 0.0 | 0.0 | 0.00 | 0.51 | 0.03 | 99 | 1013.7 |
| 20260507054547 | 9 | 4 | 0.0 | 1.6 | 0.00 | 0.51 | 0.03 | 99 | 1013.7 |
| 20260507053052 | 8 | 4 | 0.0 | 0.0 | 0.00 | 0.51 | 0.03 | 99 | 1013.3 |
| 20260507051603 | 8 | 4 | 0.0 | 0.0 | 0.00 | 0.51 | 0.03 | 99 | 1013.2 |
| 20260507050141 | 8 | 4 | 0.0 | 0.0 | 0.00 | 0.51 | 0.03 | 99 | 1013.2 |
| 20260507044605 | 8 | 4 | 0.0 | 0.0 | 0.00 | 0.51 | 0.03 | 99 | 1013.0 |
| 20260507043046 | 8 | 4 | 0.0 | 0.0 | 0.00 | 0.51 | 0.03 | 99 | 1013.1 |
| 20260507041550 | 8 | 4 | 0.0 | 0.0 | 0.00 | 0.51 | 0.03 | 98 | 1013.0 |
| 20260507040106 | 8 | 4 | 0.0 | 0.0 | 0.00 | 0.51 | 0.03 | 98 | 1013.0 |
| 20260507034605 | 8 | 11 | 0.0 | 1.6 | 0.00 | 0.51 | 0.03 | 98 | 1013.0 |
| 20260507033142 | 8 | 15 | 0.0 | 0.0 | 0.00 | 0.51 | 0.03 | 98 | 1013.2 |
| 20260507031600 | 8 | 15 | 0.0 | 0.0 | 0.03 | 0.51 | 0.03 | 98 | 1013.0 |
| 20260507030052 | 8 | 15 | 0.0 | 0.0 | 0.03 | 0.51 | 0.03 | 98 | 1013.0 |
| 20260507024601 | 8 | 15 | 0.0 | 0.0 | 0.03 | 0.51 | 0.03 | 98 | 1013.0 |
| 20260507023106 | 8 | 15 | 0.0 | 0.0 | 0.03 | 0.51 | 0.03 | 98 | 1013.0 |
| 20260507021558 | 8 | 15 | 0.0 | 0.0 | 0.00 | 0.48 | 0.00 | 98 | 1013.0 |
| 20260507014559 | 8 | 15 | 0.0 | 0.0 | 0.00 | 0.48 | 0.00 | 98 | 1012.9 |
| 20260507013104 | 8 | 15 | 0.0 | 0.0 | 0.00 | 0.48 | 0.00 | 98 | 1012.9 |
| 20260507011550 | 8 | 15 | 0.0 | 0.0 | 0.00 | 0.48 | 0.00 | 98 | 1013.0 |
| 20260507010113 | 8 | 15 | 0.0 | 0.0 | 0.00 | 0.48 | 0.00 | 98 | 1012.8 |
| 20260507004546 | 8 | 15 | 0.0 | 0.0 | 0.00 | 0.48 | 0.00 | 98 | 1012.9 |
| 20260507003059 | 8 | 15 | 0.0 | 0.0 | 0.00 | 0.48 | 0.00 | 97 | 1012.9 |
| 20260507001603 | 8 | 16 | 0.0 | 0.0 | 0.00 | 0.48 | 0.00 | 97 | 1012.9 |
| 20260507000051 | 8 | 16 | 0.0 | 0.0 | 0.00 | 0.48 | 0.00 | 97 | 1012.8 |
| 20260506234550 | 8 | 16 | 0.0 | 0.0 | 0.00 | 0.48 | 0.00 | 97 | 1012.9 |
| 20260506233103 | 9 | 16 | 0.0 | 0.0 | 0.00 | 0.48 | 0.00 | 97 | 1012.9 |
| 20260506231559 | 9 | 16 | 0.0 | 0.0 | 0.00 | 0.48 | 0.00 | 97 | 1012.8 |
| 20260506230050 | 9 | 16 | 0.0 | 0.0 | 0.00 | 0.48 | 0.00 | 97 | 1012.8 |
| 20260506224604 | 9 | 15 | 0.0 | 0.0 | 0.00 | 0.48 | 0.00 | 96 | 1012.6 |
| 20260506223103 | 9 | 16 | 0.0 | 0.0 | 0.00 | 0.48 | 0.00 | 96 | 1012.5 |
| 20260506221554 | 10 | 16 | 0.0 | 0.0 | 0.00 | 0.48 | 0.00 | 96 | 1012.4 |
| 20260506220002 | 10 | 16 | 0.0 | 0.0 | 0.00 | 0.48 | 0.00 | 96 | 1012.3 |
| 20260506214544 | 10 | 16 | 0.0 | 0.0 | 0.00 | 0.48 | 0.48 | 96 | 1012.4 |
| 20260506213055 | 10 | 1 | 0.0 | 1.6 | 0.00 | 0.48 | 0.48 | 96 | 1012.2 |
| 20260506211600 | 10 | 68 | 0.0 | 1.6 | 0.00 | 0.48 | 0.48 | 96 | 1012.2 |
| 20260506204611 | 10 | 242 | 0.0 | 0.0 | 0.05 | 0.48 | 0.48 | 96 | 1012.1 |
| 20260506203052 | 10 | 242 | 0.0 | 1.6 | 0.05 | 0.48 | 0.48 | 96 | 1012.0 |
| 20260506201601 | 10 | 247 | 0.0 | 1.6 | 0.05 | 0.48 | 0.48 | 96 | 1011.8 |
| 20260506200058 | 10 | 243 | 0.0 | 3.2 | 0.03 | 0.46 | 0.46 | 95 | 1011.6 |
| 20260506194548 | 10 | 225 | 0.0 | 0.0 | 0.00 | 0.43 | 0.43 | 94 | 1011.4 |
| 20260506193105 | 11 | 225 | 0.0 | 0.0 | 0.00 | 0.43 | 0.43 | 93 | 1011.2 |
| 20260506191546 | 11 | 225 | 0.0 | 0.0 | 0.00 | 0.43 | 0.43 | 93 | 1011.1 |
| 20260506190108 | 11 | 225 | 0.0 | 0.0 | 0.00 | 0.43 | 0.43 | 92 | 1010.8 |
| 20260506184604 | 11 | 225 | 0.0 | 0.0 | 0.00 | 0.43 | 0.43 | 91 | 1010.6 |
| 20260506183102 | 12 | 225 | 0.0 | 1.6 | 0.00 | 0.43 | 0.43 | 91 | 1010.5 |
| 20260506181552 | 12 | 84 | 0.0 | 1.6 | 0.00 | 0.43 | 0.43 | 90 | 1010.5 |
| 20260506180105 | 12 | 343 | 0.0 | 1.6 | 0.00 | 0.43 | 0.43 | 90 | 1010.2 |